Hourly Data Report for October 15, 2014

All times are specified in Local Standard Time (LST). Add 1 hour to adjust for Daylight Saving Time where and when it is observed.

WINNIPEG A CS
MANITOBA

49°55'00.000" N
97°14'58.000" W
238.70 m
502S001
71849
XWG

Download Data

Hourly Data (October 2014)
Hourly Data Report for October 15, 2014
Temp Definition
°C
Dew Point Temp Definition
°C
Rel Hum Definition
%
Wind Dir Definition
10's deg

Wind Spd Definition
km/h
Visibility Definition
km
Stn Press Definition
kPa
Hmdx Definition


Wind Chill Definition


Weather Definition


TIME
00:00 11.3 3.0 57 18 31   98.30     LegendNANA
01:00 10.7 2.8 58 18 32   98.27     LegendNANA
02:00 10.7 2.5 57 18 34   98.25     LegendNANA
03:00 10.4 2.3 57 18 35   98.22     LegendNANA
04:00 9.9 2.0 58 18 35   98.16     LegendNANA
05:00 9.2 1.7 59 19 30   98.14     LegendNANA
06:00 8.6 1.7 62 18 27   98.14     LegendNANA
07:00 9.0 1.5 60 19 29   98.16     LegendNANA
08:00 8.9 1.7 61 18 33   98.13     LegendNANA
09:00 11.4 1.7 51 19 34   98.09     LegendNANA
10:00 13.9 2.5 46 18 32   98.05     LegendNANA
11:00 17.0 2.3 37 19 28   98.02     LegendNANA
12:00 19.2 2.4 33 19 25   98.03     LegendNANA
13:00 20.2 2.5 31 18 32   97.96     LegendNANA
14:00 20.5 3.2 32 18 31   97.91     LegendNANA
15:00 21.1 3.1 31 17 31   97.86     LegendNANA
16:00 19.3 2.4 32 18 36   97.84     LegendNANA
17:00 17.8 2.7 36 18 32   97.79     LegendNANA
18:00 16.2 2.5 40 17 27   97.75     LegendNANA
19:00 15.3 2.1 41 16 24   97.73     LegendNANA
20:00 14.8 2.2 42 16 26   97.68     LegendNANA
21:00 14.6 2.4 44 16 27   97.62     LegendNANA
22:00 14.3 2.2 44 17 31   97.57     LegendNANA
23:00 13.8 2.3 46 17 27   97.52     LegendNANA

Notes on Data Quality.

Legend

  • E = Estimated
  • M = Missing
  • NA = Not Available
  • ‡ = Partner data that is not subject to review by the National Climate Archives
Date modified: